QPF
0.02 0.02 0.01 0.01 0.01 0.01 0.01 0.01 0.01 0.02 0.02 0.02 0.02 0.02 0.02 0.02 0.02 0.02 0.02 0.02 0.02 0.02 0.04 0.02 0.02 0.02 0.02 0.01 0.00 0.00 0.00 0.00 0.00 0.00 0.00 0.00 0.00 0.00 0.00 0.01 0.01 0.00 0.00
0.01 0.01 0.01 0.02 0.02 0.01 0.01 0.01 0.02 0.02 0.02 0.03 0.02 0.02 0.02 0.02 0.03 0.03 0.03 0.02 0.02 0.02 0.03 0.03 0.03 0.02 0.02 0.01 0.00 0.00 0.00 0.00 0.00 0.00 0.00 0.00 0.00 0.00 0.00 0.00 0.00 0.01 0.00
0.01 0.02 0.01 0.01 0.02 0.02 0.01 0.01 0.02 0.02 0.02 0.03 0.03 0.03 0.03 0.03 0.03 0.03 0.04 0.03 0.02 0.02 0.02 0.02 0.02 0.03 0.02 0.01 0.01 0.00 0.00 0.00 0.00 0.00 0.00 0.01 0.01 0.01 0.01 0.01 0.01 0.01 0.01
0.02 0.02 0.01 0.01 0.01 0.03 0.02 0.01 0.02 0.02 0.02 0.03 0.05 0.04 0.03 0.04 0.04 0.03 0.03 0.03 0.02 0.02 0.02 0.02 0.03 0.02 0.01 0.01 0.00 0.00 0.00 0.00 0.00 0.00 0.01 0.02 0.01 0.01 0.02 0.02 0.02 0.02 0.01
0.02 0.03 0.02 0.01 0.01 0.02 0.04 0.03 0.02 0.02 0.02 0.02 0.04 0.04 0.03 0.03 0.02 0.02 0.02 0.02 0.02 0.01 0.01 0.01 0.02 0.01 0.01 0.01 0.00 0.00 0.00 0.00 0.00 0.00 0.01 0.02 0.02 0.04 0.04 0.03 0.02 0.02 0.02
0.02 0.03 0.04 0.02 0.02 0.02 0.03 0.04 0.03 0.02 0.02 0.02 0.02 0.03 0.03 0.03 0.02 0.01 0.01 0.02 0.02 0.02 0.02 0.01 0.01 0.01 0.01 0.01 0.00 0.00 0.00 0.00 0.00 0.01 0.01 0.02 0.03 0.05 0.03 0.02 0.01 0.02 0.02
0.02 0.03 0.03 0.03 0.04 0.03 0.03 0.03 0.04 0.04 0.03 0.02 0.02 0.03 0.03 0.03 0.02 0.01 0.01 0.01 0.01 0.02 0.02 0.01 0.01 0.01 0.01 0.01 0.00 0.00 0.00 0.00 0.01 0.01 0.02 0.02 0.03 0.03 0.02 0.01 0.01 0.02 0.02
0.01 0.02 0.03 0.02 0.02 0.03 0.05 0.04 0.04 0.05 0.05 0.04 0.03 0.04 0.04 0.03 0.02 0.01 0.01 0.01 0.01 0.01 0.02 0.02 0.01 0.01 0.01 0.01 0.00 0.00 0.00 0.00 0.00 0.01 0.01 0.02 0.02 0.02 0.02 0.01 0.01 0.02 0.02
0.02 0.02 0.03 0.03 0.03 0.03 0.04 0.04 0.04 0.05 0.05 0.05 0.03 0.03 0.03 0.04 0.03 0.01 0.01 0.01 0.01 0.02 0.02 0.02 0.01 0.01 0.01 0.01 0.01 0.00 0.00 0.00 0.00 0.00 0.01 0.01 0.02 0.03 0.01 0.01 0.01 0.01 0.01
0.02 0.02 0.02 0.02 0.03 0.04 0.03 0.03 0.04 0.04 0.05 0.06 0.04 0.04 0.02 0.02 0.02 0.02 0.01 0.01 0.02 0.03 0.03 0.02 0.01 0.01 0.01 0.01 0.01 0.00 0.00 0.00 0.00 0.00 0.01 0.01 0.01 0.02 0.01 0.01 0.01 0.01 0.01
0.01 0.02 0.02 0.02 0.02 0.04 0.03 0.02 0.04 0.04 0.04 0.05 0.04 0.04 0.03 0.03 0.01 0.01 0.02 0.01 0.01 0.02 0.02 0.02 0.01 0.01 0.01 0.00 0.00 0.00 0.00 0.00 0.01 0.01 0.01 0.01 0.01 0.02 0.01 0.01 0.01 0.01 0.01
0.01 0.02 0.02 0.02 0.01 0.03 0.04 0.03 0.03 0.04 0.04 0.04 0.03 0.03 0.05 0.04 0.02 0.01 0.01 0.01 0.02 0.01 0.02 0.02 0.01 0.01 0.01 0.00 0.00 0.00 0.00 0.00 0.01 0.01 0.01 0.01 0.02 0.02 0.01 0.01 0.01 0.01 0.01
0.01 0.01 0.02 0.02 0.01 0.01 0.03 0.03 0.03 0.04 0.05 0.05 0.05 0.04 0.03 0.03 0.02 0.02 0.01 0.01 0.01 0.01 0.02 0.02 0.02 0.02 0.01 0.00 0.00 0.00 0.00 0.00 0.00 0.00 0.01 0.01 0.01 0.01 0.01 0.01 0.01 0.01 0.02
0.01 0.01 0.01 0.01 0.01 0.01 0.02 0.02 0.03 0.03 0.04 0.05 0.06 0.05 0.04 0.02 0.02 0.01 0.01 0.01 0.01 0.01 0.02 0.02 0.02 0.01 0.01 0.01 0.00 0.01 0.01 0.01 0.00 0.00 0.00 0.01 0.01 0.01 0.01 0.01 0.01 0.01 0.02
0.00 0.01 0.01 0.01 0.02 0.02 0.02 0.01 0.01 0.02 0.04 0.04 0.06 0.05 0.04 0.03 0.02 0.01 0.01 0.01 0.01 0.01 0.01 0.01 0.02 0.03 0.02 0.01 0.01 0.01 0.01 0.01 0.01 0.01 0.01 0.01 0.01 0.02 0.02 0.01 0.01 0.01 0.01
0.00 0.00 0.01 0.01 0.01 0.02 0.02 0.01 0.01 0.01 0.03 0.05 0.07 0.08 0.06 0.04 0.02 0.01 0.01 0.01 0.00 0.00 0.01 0.01 0.02 0.02 0.03 0.02 0.02 0.02 0.02 0.01 0.01 0.01 0.01 0.01 0.01 0.01 0.02 0.01 0.01 0.02 0.02
0.00 0.00 0.01 0.01 0.01 0.02 0.02 0.01 0.01 0.01 0.02 0.04 0.06 0.09 0.09 0.06 0.03 0.02 0.01 0.00 0.00 0.00 0.01 0.01 0.01 0.02 0.03 0.03 0.03 0.02 0.02 0.02 0.02 0.01 0.01 0.01 0.01 0.01 0.01 0.01 0.01 0.02 0.01
0.00 0.00 0.01 0.01 0.01 0.02 0.02 0.02 0.01 0.01 0.02 0.05 0.06 0.07 0.08 0.08 0.05 0.03 0.02 0.01 0.00 0.00 0.00 0.00 0.01 0.01 0.01 0.02 0.02 0.02 0.02 0.02 0.02 0.02 0.02 0.01 0.01 0.01 0.01 0.01 0.01 0.01 0.02
0.00 0.00 0.00 0.00 0.01 0.02 0.02 0.02 0.02 0.01 0.02 0.04 0.07 0.08 0.07 0.07 0.06 0.04 0.03 0.02 0.01 0.01 0.00 0.00 0.00 0.01 0.01 0.01 0.01 0.02 0.03 0.02 0.02 0.03 0.03 0.03 0.02 0.01 0.01 0.01 0.00 0.01 0.01
0.00 0.00 0.00 0.00 0.01 0.01 0.02 0.02 0.02 0.02 0.01 0.02 0.04 0.07 0.07 0.06 0.05 0.05 0.03 0.02 0.01 0.01 0.00 0.00 0.00 0.01 0.01 0.01 0.01 0.01 0.02 0.02 0.03 0.03 0.03 0.03 0.03 0.02 0.01 0.01 0.01 0.00 0.01
0.00 0.00 0.00 0.01 0.01 0.01 0.02 0.02 0.02 0.02 0.01 0.01 0.02 0.04 0.06 0.06 0.04 0.03 0.04 0.02 0.01 0.01 0.00 0.00 0.00 0.01 0.01 0.01 0.01 0.01 0.02 0.02 0.02 0.03 0.03 0.04 0.03 0.03 0.03 0.02 0.01 0.01 0.01
0.00 0.00 0.00 0.00 0.00 0.01 0.01 0.02 0.02 0.01 0.01 0.01 0.01 0.02 0.04 0.06 0.04 0.02 0.01 0.02 0.01 0.01 0.00 0.00 0.00 0.00 0.01 0.01 0.01 0.01 0.01 0.01 0.02 0.02 0.04 0.04 0.04 0.04 0.04 0.03 0.02 0.01 0.01
0.00 0.00 0.00 0.00 0.00 0.01 0.01 0.02 0.03 0.02 0.01 0.01 0.01 0.01 0.02 0.04 0.04 0.02 0.01 0.01 0.01 0.00 0.00 0.00 0.00 0.00 0.01 0.01 0.01 0.01 0.01 0.01 0.01 0.02 0.03 0.04 0.04 0.04 0.04 0.03 0.03 0.02 0.02
0.00 0.00 0.00 0.00 0.01 0.01 0.02 0.02 0.03 0.03 0.02 0.01 0.01 0.01 0.01 0.02 0.03 0.02 0.01 0.01 0.01 0.01 0.00 0.00 0.00 0.00 0.00 0.01 0.01 0.01 0.01 0.01 0.01 0.02 0.02 0.04 0.04 0.04 0.03 0.03 0.04 0.04 0.04
0.00 0.00 0.00 0.01 0.01 0.02 0.02 0.03 0.03 0.04 0.02 0.01 0.01 0.01 0.01 0.01 0.02 0.02 0.01 0.01 0.01 0.01 0.01 0.00 0.00 0.00 0.00 0.01 0.01 0.01 0.01 0.01 0.01 0.02 0.03 0.04 0.04 0.04 0.03 0.02 0.02 0.03 0.04
0.00 0.00 0.01 0.01 0.02 0.02 0.02 0.03 0.03 0.04 0.03 0.02 0.01 0.01 0.01 0.01 0.01 0.01 0.01 0.01 0.01 0.01 0.00 0.00 0.00 0.00 0.00 0.00 0.01 0.01 0.01 0.02 0.02 0.02 0.02 0.03 0.04 0.03 0.03 0.03 0.02 0.03 0.03
MSLP
1010.66 1010.67 1010.76 1010.96 1011.29 1011.71 1012.18 1012.66 1013.10 1013.46 1013.76 1014.00 1014.23 1014.48 1014.78 1015.12 1015.49 1015.87 1016.20 1016.46 1016.65 1016.77 1016.85 1016.91 1017.00 1017.13 1017.30 1017.51 1017.72 1017.93 1018.11 1018.26 1018.37 1018.46 1018.53 1018.60 1018.67 1018.73 1018.77 1018.79 1018.77 1018.73 1018.67
1010.46 1010.51 1010.65 1010.92 1011.32 1011.81 1012.34 1012.86 1013.31 1013.67 1013.96 1014.19 1014.41 1014.66 1014.95 1015.30 1015.67 1016.04 1016.36 1016.61 1016.79 1016.90 1016.98 1017.06 1017.16 1017.31 1017.50 1017.73 1017.96 1018.17 1018.36 1018.51 1018.64 1018.74 1018.83 1018.93 1019.02 1019.11 1019.17 1019.21 1019.20 1019.17 1019.12
1010.18 1010.25 1010.45 1010.79 1011.27 1011.85 1012.45 1013.01 1013.50 1013.88 1014.17 1014.40 1014.62 1014.85 1015.13 1015.45 1015.80 1016.13 1016.42 1016.65 1016.81 1016.92 1017.01 1017.11 1017.24 1017.42 1017.65 1017.89 1018.14 1018.37 1018.56 1018.72 1018.85 1018.96 1019.08 1019.20 1019.33 1019.44 1019.54 1019.60 1019.63 1019.63 1019.60
1009.87 1009.96 1010.20 1010.61 1011.17 1011.82 1012.48 1013.11 1013.63 1014.05 1014.36 1014.61 1014.82 1015.05 1015.31 1015.60 1015.90 1016.19 1016.44 1016.64 1016.79 1016.90 1017.01 1017.14 1017.31 1017.53 1017.78 1018.05 1018.32 1018.55 1018.75 1018.91 1019.05 1019.18 1019.31 1019.46 1019.61 1019.76 1019.89 1019.99 1020.06 1020.09 1020.10
1009.59 1009.70 1009.97 1010.44 1011.05 1011.75 1012.46 1013.13 1013.70 1014.15 1014.49 1014.76 1015.00 1015.23 1015.48 1015.74 1016.01 1016.26 1016.48 1016.65 1016.79 1016.92 1017.05 1017.22 1017.43 1017.68 1017.97 1018.26 1018.53 1018.77 1018.97 1019.14 1019.28 1019.43 1019.58 1019.75 1019.92 1020.10 1020.26 1020.39 1020.49 1020.56 1020.61
1009.42 1009.53 1009.83 1010.32 1010.95 1011.67 1012.40 1013.08 1013.68 1014.16 1014.54 1014.85 1015.12 1015.38 1015.64 1015.90 1016.16 1016.39 1016.59 1016.75 1016.90 1017.04 1017.21 1017.41 1017.65 1017.94 1018.24 1018.54 1018.82 1019.06 1019.27 1019.44 1019.60 1019.76 1019.93 1020.11 1020.30 1020.49 1020.67 1020.82 1020.94 1021.03 1021.11
1009.40 1009.51 1009.81 1010.29 1010.91 1011.60 1012.31 1012.98 1013.58 1014.09 1014.51 1014.87 1015.19 1015.50 1015.79 1016.08 1016.34 1016.58 1016.78 1016.96 1017.12 1017.29 1017.49 1017.72 1017.99 1018.30 1018.61 1018.91 1019.19 1019.43 1019.64 1019.82 1020.00 1020.18 1020.37 1020.57 1020.78 1020.97 1021.15 1021.29 1021.41 1021.51 1021.59
1009.52 1009.64 1009.93 1010.37 1010.94 1011.57 1012.22 1012.85 1013.43 1013.94 1014.41 1014.82 1015.21 1015.58 1015.93 1016.26 1016.56 1016.82 1017.05 1017.25 1017.44 1017.64 1017.87 1018.13 1018.41 1018.72 1019.03 1019.33 1019.60 1019.84 1020.06 1020.26 1020.47 1020.68 1020.91 1021.13 1021.35 1021.54 1021.70 1021.82 1021.92 1022.00 1022.07
1009.74 1009.88 1010.15 1010.54 1011.03 1011.58 1012.15 1012.71 1013.25 1013.77 1014.26 1014.73 1015.18 1015.62 1016.04 1016.42 1016.77 1017.07 1017.33 1017.56 1017.79 1018.02 1018.28 1018.56 1018.85 1019.16 1019.46 1019.74 1020.00 1020.25 1020.48 1020.72 1020.97 1021.22 1021.49 1021.74 1021.97 1022.16 1022.30 1022.39 1022.45 1022.50 1022.54
1010.02 1010.17 1010.42 1010.76 1011.17 1011.62 1012.09 1012.58 1013.08 1013.58 1014.09 1014.61 1015.13 1015.63 1016.10 1016.54 1016.92 1017.26 1017.55 1017.83 1018.09 1018.36 1018.64 1018.94 1019.24 1019.54 1019.83 1020.10 1020.36 1020.61 1020.87 1021.14 1021.44 1021.75 1022.06 1022.34 1022.59 1022.78 1022.90 1022.97 1022.99 1023.00 1023.01
1010.27 1010.45 1010.69 1010.97 1011.30 1011.66 1012.05 1012.47 1012.92 1013.42 1013.95 1014.50 1015.06 1015.61 1016.12 1016.59 1017.00 1017.36 1017.69 1017.99 1018.29 1018.59 1018.90 1019.22 1019.54 1019.84 1020.13 1020.39 1020.65 1020.91 1021.19 1021.51 1021.85 1022.21 1022.57 1022.89 1023.16 1023.35 1023.47 1023.51 1023.51 1023.49 1023.47
1010.44 1010.65 1010.89 1011.13 1011.39 1011.68 1012.00 1012.37 1012.80 1013.29 1013.84 1014.42 1015.01 1015.58 1016.10 1016.58 1017.00 1017.37 1017.70 1018.03 1018.36 1018.70 1019.06 1019.41 1019.75 1020.07 1020.36 1020.63 1020.89 1021.17 1021.47 1021.81 1022.19 1022.59 1022.99 1023.34 1023.63 1023.84 1023.95 1024.00 1023.98 1023.95 1023.93
1010.47 1010.73 1010.97 1011.19 1011.41 1011.65 1011.94 1012.29 1012.72 1013.22 1013.78 1014.38 1014.97 1015.54 1016.06 1016.52 1016.93 1017.29 1017.64 1017.98 1018.35 1018.73 1019.13 1019.53 1019.92 1020.27 1020.58 1020.87 1021.15 1021.44 1021.75 1022.11 1022.50 1022.92 1023.32 1023.69 1024.00 1024.21 1024.34 1024.40 1024.40 1024.38 1024.37
1010.37 1010.66 1010.91 1011.13 1011.35 1011.58 1011.87 1012.23 1012.67 1013.19 1013.77 1014.38 1014.98 1015.53 1016.02 1016.45 1016.83 1017.18 1017.53 1017.90 1018.30 1018.74 1019.20 1019.65 1020.09 1020.50 1020.85 1021.17 1021.47 1021.77 1022.08 1022.43 1022.82 1023.22 1023.62 1023.98 1024.28 1024.50 1024.65 1024.72 1024.75 1024.77 1024.79
1010.11 1010.44 1010.72 1010.96 1011.20 1011.46 1011.78 1012.17 1012.66 1013.21 1013.82 1014.43 1015.02 1015.55 1016.01 1016.41 1016.76 1017.10 1017.45 1017.84 1018.28 1018.77 1019.30 1019.83 1020.33 1020.80 1021.21 1021.57 1021.90 1022.21 1022.52 1022.85 1023.20 1023.56 1023.92 1024.24 1024.52 1024.74 1024.89 1025.00 1025.07 1025.13 1025.19
1009.72 1010.09 1010.41 1010.70 1010.98 1011.30 1011.68 1012.13 1012.67 1013.27 1013.90 1014.52 1015.09 1015.61 1016.04 1016.41 1016.74 1017.07 1017.43 1017.85 1018.33 1018.88 1019.47 1020.07 1020.66 1021.20 1021.68 1022.09 1022.45 1022.78 1023.09 1023.39 1023.69 1023.99 1024.29 1024.55 1024.79 1024.98 1025.14 1025.26 1025.37 1025.47 1025.58
1009.22 1009.64 1010.02 1010.37 1010.72 1011.11 1011.57 1012.09 1012.69 1013.33 1013.99 1014.62 1015.19 1015.68 1016.10 1016.46 1016.78 1017.12 1017.49 1017.94 1018.46 1019.06 1019.71 1020.37 1021.03 1021.64 1022.19 1022.67 1023.09 1023.44 1023.75 1024.03 1024.29 1024.53 1024.75 1024.94 1025.12 1025.28 1025.42 1025.55 1025.68 1025.82 1025.97
1008.66 1009.13 1009.57 1009.99 1010.43 1010.91 1011.45 1012.06 1012.72 1013.40 1014.07 1014.71 1015.27 1015.76 1016.17 1016.53 1016.87 1017.21 1017.61 1018.09 1018.64 1019.27 1019.96 1020.67 1021.39 1022.07 1022.69 1023.24 1023.72 1024.12 1024.45 1024.73 1024.96 1025.14 1025.30 1025.43 1025.55 1025.66 1025.77 1025.90 1026.04 1026.19 1026.36
1008.05 1008.58 1009.09 1009.61 1010.14 1010.72 1011.35 1012.02 1012.73 1013.44 1014.13 1014.77 1015.33 1015.81 1016.23 1016.60 1016.96 1017.33 1017.75 1018.25 1018.82 1019.46 1020.17 1020.91 1021.65 1022.39 1023.07 1023.70 1024.25 1024.72 1025.11 1025.41 1025.63 1025.79 1025.90 1025.98 1026.04 1026.11 1026.19 1026.30 1026.43 1026.59 1026.75
1007.43 1008.02 1008.61 1009.21 1009.85 1010.52 1011.23 1011.97 1012.72 1013.45 1014.14 1014.77 1015.33 1015.81 1016.24 1016.63 1017.02 1017.42 1017.86 1018.37 1018.94 1019.58 1020.28 1021.01 1021.78 1022.54 1023.28 1023.98 1024.61 1025.16 1025.62 1025.97 1026.23 1026.39 1026.48 1026.53 1026.56 1026.59 1026.65 1026.73 1026.85 1026.99 1027.14
1006.81 1007.46 1008.13 1008.83 1009.56 1010.33 1011.11 1011.91 1012.68 1013.42 1014.10 1014.72 1015.26 1015.75 1016.19 1016.60 1017.02 1017.45 1017.92 1018.43 1018.99 1019.60 1020.27 1020.98 1021.73 1022.51 1023.29 1024.04 1024.75 1025.39 1025.93 1026.35 1026.66 1026.86 1026.96 1027.01 1027.02 1027.04 1027.08 1027.15 1027.25 1027.37 1027.50
1006.23 1006.93 1007.67 1008.46 1009.28 1010.13 1010.98 1011.81 1012.61 1013.35 1014.01 1014.60 1015.13 1015.61 1016.06 1016.50 1016.95 1017.41 1017.89 1018.41 1018.95 1019.53 1020.16 1020.83 1021.55 1022.31 1023.10 1023.90 1024.67 1025.38 1026.00 1026.50 1026.88 1027.12 1027.27 1027.34 1027.36 1027.38 1027.42 1027.49 1027.58 1027.70 1027.81
1005.69 1006.43 1007.24 1008.09 1008.99 1009.91 1010.82 1011.69 1012.49 1013.22 1013.86 1014.43 1014.94 1015.42 1015.88 1016.34 1016.81 1017.30 1017.80 1018.32 1018.85 1019.40 1019.98 1020.60 1021.28 1022.01 1022.79 1023.60 1024.40 1025.16 1025.83 1026.40 1026.84 1027.14 1027.34 1027.45 1027.51 1027.56 1027.62 1027.70 1027.81 1027.93 1028.04
1005.22 1005.99 1006.83 1007.74 1008.70 1009.67 1010.62 1011.51 1012.33 1013.05 1013.67 1014.21 1014.71 1015.17 1015.64 1016.11 1016.61 1017.13 1017.65 1018.18 1018.70 1019.23 1019.77 1020.35 1020.98 1021.67 1022.41 1023.20 1024.00 1024.77 1025.47 1026.07 1026.56 1026.91 1027.15 1027.31 1027.43 1027.52 1027.62 1027.75 1027.89 1028.03 1028.16
1004.85 1005.61 1006.47 1007.40 1008.39 1009.39 1010.37 1011.29 1012.11 1012.82 1013.43 1013.96 1014.43 1014.89 1015.35 1015.85 1016.37 1016.91 1017.46 1018.01 1018.54 1019.06 1019.58 1020.13 1020.70 1021.34 1022.03 1022.77 1023.53 1024.28 1024.97 1025.57 1026.07 1026.46 1026.75 1026.96 1027.13 1027.29 1027.45 1027.63 1027.82 1028.01 1028.18
1004.57 1005.31 1006.15 1007.08 1008.07 1009.09 1010.08 1011.01 1011.84 1012.54 1013.14 1013.65 1014.12 1014.56 1015.03 1015.53 1016.07 1016.64 1017.22 1017.80 1018.35 1018.88 1019.40 1019.92 1020.46 1021.05 1021.68 1022.35 1023.04 1023.73 1024.37 1024.95 1025.45 1025.85 1026.17 1026.43 1026.66 1026.89 1027.13 1027.37 1027.63 1027.87 1028.09
Thickness
5735 5734 5731 5730 5728 5728 5727 5727 5726 5725 5725 5724 5724 5723 5723 5722 5722 5722 5722 5721 5721 5721 5720 5720 5719 5719 5719 5719 5719 5718 5718 5718 5717 5717 5717 5716 5716 5716 5716 5715 5715 5714 5714
5734 5731 5728 5726 5725 5724 5724 5723 5722 5722 5721 5721 5720 5720 5719 5719 5719 5718 5718 5718 5718 5718 5717 5717 5716 5716 5716 5715 5715 5714 5714 5714 5714 5714 5714 5713 5713 5713 5712 5712 5711 5711 5711
5730 5727 5724 5723 5722 5721 5720 5719 5719 5718 5718 5717 5717 5716 5716 5715 5715 5715 5715 5715 5714 5714 5714 5713 5713 5712 5712 5712 5711 5711 5711 5711 5711 5711 5711 5711 5710 5709 5709 5708 5708 5708 5707
5726 5723 5721 5719 5718 5717 5716 5715 5715 5714 5714 5713 5713 5712 5712 5711 5711 5711 5711 5711 5711 5710 5710 5710 5709 5709 5708 5708 5708 5708 5708 5708 5709 5709 5709 5708 5707 5707 5706 5705 5704 5704 5704
5721 5719 5716 5714 5713 5712 5711 5711 5710 5710 5710 5709 5709 5708 5708 5707 5707 5707 5707 5707 5706 5706 5706 5706 5705 5705 5704 5704 5704 5704 5704 5705 5706 5706 5706 5705 5704 5703 5702 5702 5701 5700 5700
5716 5714 5711 5709 5709 5708 5707 5706 5706 5706 5705 5705 5704 5704 5704 5703 5703 5702 5702 5702 5702 5702 5702 5702 5701 5701 5700 5700 5700 5701 5701 5702 5702 5703 5702 5702 5701 5700 5699 5698 5697 5696 5695
5710 5708 5706 5705 5704 5703 5702 5701 5701 5701 5700 5700 5700 5699 5699 5698 5698 5698 5698 5697 5698 5698 5698 5697 5697 5696 5696 5696 5696 5697 5698 5698 5698 5699 5698 5697 5696 5696 5695 5694 5693 5692 5691
5704 5703 5700 5699 5698 5698 5697 5696 5696 5696 5695 5695 5694 5694 5694 5694 5693 5693 5693 5693 5693 5693 5693 5692 5692 5692 5692 5691 5692 5692 5693 5694 5694 5694 5694 5693 5692 5691 5690 5689 5688 5687 5687
5698 5697 5695 5694 5693 5692 5692 5691 5691 5690 5690 5689 5689 5689 5689 5688 5688 5688 5688 5687 5687 5687 5687 5687 5687 5687 5686 5687 5687 5688 5689 5689 5689 5690 5689 5688 5687 5687 5686 5685 5684 5683 5682
5691 5691 5690 5689 5689 5688 5687 5686 5685 5685 5684 5684 5683 5683 5683 5683 5683 5682 5682 5682 5682 5682 5682 5682 5682 5682 5682 5682 5682 5683 5684 5684 5684 5684 5684 5683 5683 5682 5681 5680 5679 5678 5677
5684 5685 5685 5684 5684 5683 5682 5681 5680 5679 5679 5678 5678 5677 5677 5677 5677 5677 5677 5677 5677 5676 5676 5677 5677 5677 5677 5677 5678 5678 5679 5679 5679 5678 5678 5678 5677 5677 5676 5675 5674 5673 5673
5675 5677 5679 5678 5678 5678 5677 5676 5675 5674 5673 5673 5672 5672 5672 5672 5671 5671 5671 5671 5671 5671 5671 5671 5671 5672 5672 5672 5673 5673 5673 5674 5674 5673 5672 5672 5672 5671 5670 5669 5669 5668 5667
5669 5671 5672 5672 5672 5672 5671 5670 5670 5669 5668 5667 5667 5667 5667 5666 5666 5665 5665 5665 5665 5665 5665 5665 5666 5666 5667 5667 5667 5668 5668 5668 5668 5667 5666 5666 5666 5665 5665 5664 5663 5662 5662
5663 5664 5665 5666 5666 5665 5665 5664 5664 5663 5662 5661 5661 5661 5661 5660 5660 5660 5660 5660 5660 5660 5660 5660 5660 5661 5661 5662 5662 5662 5662 5662 5661 5661 5660 5660 5659 5659 5659 5658 5657 5656 5656
5656 5657 5657 5658 5658 5658 5658 5658 5657 5657 5656 5655 5655 5655 5655 5655 5654 5654 5654 5653 5654 5654 5654 5654 5655 5655 5655 5656 5656 5656 5655 5655 5654 5653 5653 5653 5652 5652 5652 5651 5651 5650 5650
5650 5650 5650 5651 5651 5650 5650 5651 5651 5650 5650 5649 5648 5648 5648 5648 5648 5647 5647 5647 5647 5648 5648 5648 5648 5648 5648 5649 5648 5648 5648 5647 5647 5646 5646 5645 5645 5645 5644 5644 5644 5643 5642
5642 5643 5643 5643 5643 5643 5643 5643 5643 5643 5643 5642 5642 5641 5641 5641 5641 5640 5640 5640 5640 5641 5641 5641 5641 5641 5641 5640 5640 5640 5640 5639 5639 5639 5638 5637 5637 5637 5637 5636 5636 5635 5634
5634 5635 5635 5636 5635 5635 5635 5635 5636 5636 5636 5635 5635 5634 5633 5633 5634 5633 5632 5632 5632 5633 5633 5633 5633 5632 5631 5631 5630 5630 5630 5630 5631 5631 5630 5630 5629 5629 5628 5628 5627 5627 5626
5626 5627 5627 5627 5627 5627 5627 5627 5627 5627 5627 5627 5627 5626 5626 5626 5626 5626 5625 5624 5624 5625 5625 5625 5624 5623 5622 5621 5620 5620 5620 5621 5621 5622 5621 5621 5621 5620 5620 5619 5619 5618 5618
5618 5618 5618 5619 5619 5618 5618 5618 5618 5618 5618 5619 5619 5618 5618 5618 5618 5618 5617 5617 5617 5616 5616 5615 5615 5614 5613 5612 5612 5610 5610 5610 5611 5612 5612 5612 5612 5612 5611 5610 5610 5610 5609
5608 5609 5609 5610 5610 5610 5609 5609 5609 5608 5609 5609 5610 5610 5610 5610 5610 5609 5609 5609 5608 5607 5607 5607 5606 5605 5603 5602 5600 5597 5598 5600 5600 5601 5602 5602 5602 5603 5602 5601 5601 5601 5601
5598 5599 5600 5601 5601 5601 5601 5602 5601 5600 5600 5600 5601 5601 5602 5601 5601 5601 5601 5600 5600 5598 5598 5598 5597 5596 5594 5594 5591 5589 5586 5586 5588 5591 5591 5592 5592 5593 5593 5593 5592 5592 5592
5588 5590 5592 5592 5593 5592 5592 5592 5591 5590 5590 5590 5591 5592 5593 5593 5592 5592 5591 5591 5591 5590 5590 5589 5589 5588 5585 5584 5585 5583 5579 5578 5577 5578 5580 5582 5582 5582 5583 5583 5583 5583 5582
5579 5580 5582 5583 5583 5584 5584 5583 5583 5583 5583 5584 5583 5583 5584 5584 5584 5583 5582 5582 5583 5582 5582 5582 5581 5580 5578 5576 5575 5576 5576 5575 5570 5567 5568 5570 5571 5572 5572 5573 5573 5573 5572
5570 5570 5571 5573 5573 5574 5575 5576 5575 5575 5575 5575 5575 5574 5574 5575 5574 5574 5574 5573 5574 5574 5574 5573 5573 5572 5571 5569 5567 5566 5566 5566 5565 5561 5558 5558 5559 5561 5562 5563 5563 5563 5562
5558 5560 5561 5562 5563 5564 5565 5566 5567 5567 5567 5567 5566 5565 5565 5566 5566 5566 5566 5566 5566 5567 5567 5566 5565 5564 5563 5562 5560 5559 5558 5556 5555 5554 5551 5548 5548 5550 5552 5552 5553 5553 5553